Regional Weather Roundup
Issued by NWS

Home | Current Version | Previous Version | Graphics & Text | Print | Product List | Glossary On
Versions: 1 2 3 4 5 6 7 8 9 10 11 12 13 14 15 16 17 18 19 20 21 22 23 24 25 26 27 28 29 30 31 32 33 34 35 36 37 38 39 40 41 42 43 44 45 46 47 48 49 50
000
ASUS43 KLOT 030508
RWRIL

ILLINOIS REGIONAL WEATHER ROUNDUP
NATIONAL WEATHER SERVICE CHICAGO/ROMEOVILLE IL
1200 AM CDT THU SEP 03 2015

NOTE: "FAIR" INDICATES FEW OR NO CLOUDS BELOW 12,000 FEET WITH NO
SIGNIFICANT WEATHER AND/OR OBSTRUCTIONS TO VISIBILITY.

* THESE STATIONS ARE NOT UNDER NWS QUALITY CONTROL. THEY ALSO MAY NOT
  REPORT WEATHER SUCH AS PRECIPITATION OR FOG.

ILZ001-002-007-009-015-016-024-030600-
NORTHWEST ILLINOIS

CITY           SKY/WX    TMP DP  RH WIND       PRES   REMARKS
MOLINE         PTCLDY    75  67  76 SW5       29.95F
STERLING*      PTCLDY    77  72  83 CALM      29.95R
SAVANNA*       CLOUDY    74  69  82 S6        29.96R
$$

ILZ003-004-008-010-011-017-018-030600-
NORTH CENTRAL ILLINOIS

CITY           SKY/WX    TMP DP  RH WIND       PRES   REMARKS
ROCKFORD       MOCLDY    75  69  81 S5        29.98R
FREEPORT*      CLOUDY    74  68  83 SW7       29.98S
ROCHELLE*      CLOUDY    71  68  92 S6        29.98S
DE KALB*       CLOUDY    72  69  91 CALM      29.99S
PERU*          PTCLDY    75  68  78 CALM      29.99S
$$

ILZ005-006-012>014-019>023-030600-
NORTHEAST ILLINOIS

CITY           SKY/WX    TMP DP  RH WIND       PRES   REMARKS
CHICAGO-OHARE  MOCLDY    79  67  66 SW6       29.97S HX  81
CHICAGO-MIDWAY MOCLDY    81  69  67 S5        29.97F HX  84
AURORA         PTCLDY    74  68  81 S5        29.98S
LANSING*       PTCLDY    73  68  83 S3        29.98F
JOLIET*        PTCLDY    73  72  96 CALM      29.98S FOG
WAUKEGAN       PTCLDY    76  69  79 S8        29.95F
DUPAGE AIRPORT CLOUDY    74  68  81 S5        29.97F
KANKAKEE*      PTCLDY    74  70  88 SW7       30.00S
WHEELING       MOCLDY    77  67  71 S5        29.97F
MORRIS*        MOCLDY    73  70  90 CALM      29.97F
ROMEOVILLE*    PTCLDY    73  68  85 S5        29.98F
NORTHERLY ISL    N/A     81  67  62 SW3         N/A  HX  83
$$

LMZ740>746-030600-
SOUTHERN LAKE MICHIGAN

STATION/POSITION SKY/WX   TEMP    WIND        PRES    VSBY  WAVE
                          AIR SEA DIR/SP/G                  HT/PER
                          (F)     (DEG/KT/KT) (MB)    (MI)  (FT/S)
SOUTHERN BUOY              74 71  180/  8/ 10 1013.8F
WILMETTE HARBOR            70 62  330/  4/  6   N/A           0
HARRISON CRIB              81     190/ 10/ 11   N/A
BURNHAM HARBOR             81     180/  5/  6   N/A
CALUMET HARBOR             80     180/  2/  3   N/A
MICHIGAN CITY              80     160/  9/ 10   N/A
MICHIGAN CITY 6N           76 73  200/  4/  6   N/A           1
ST. JOSEPH                 76 74  230/  6/  6   N/A           1
$$

ILZ025>027-034>036-040-047-049-050-058-095>099-030600-
WEST-CENTRAL ILLINOIS

CITY           SKY/WX    TMP DP  RH WIND       PRES   REMARKS
QUINCY         PTCLDY    76  69  79 S7        29.98S
GALESBURG*     MOCLDY    73  69  86 S5        29.98S
MACOMB*        MOCLDY    75  69  80 S5        30.00S
JACKSONVILLE*  CLEAR     76  69  77 S3        29.99S
PITTSFIELD*    CLEAR     74  68  83 S5        30.00S
$$

ILZ028>032-037-038-041>044-048-051>054-059>061-030600-
CENTRAL ILLINOIS

CITY           SKY/WX    TMP DP  RH WIND       PRES   REMARKS
PONTIAC        PTCLDY    70  69  95 CALM      30.00S
BLOOMINGTON    CLEAR     72  69  90 SW5       30.02S
DECATUR        CLEAR     75  66  73 S6        30.01S
PEORIA         PTCLDY    76  66  71 S5        29.99R
LACON*         PTCLDY    74  67  77 S3        29.97S
LINCOLN*       CLEAR     73  66  79 CALM      29.99S
SPRINGFIELD    CLEAR     73  67  81 CALM      30.00S
TAYLORVILLE    CLEAR     72  68  88 S5        30.01S
$$

ILZ033-039-045-046-055>057-062-063-030600-
EAST-CENTRAL ILLINOIS

CITY           SKY/WX    TMP DP  RH WIND       PRES   REMARKS
CHAMPAIGN      CLEAR     71  67  87 S6        30.02S
RANTOUL*       CLEAR     74  69  87 CALM      30.01S
MATTOON        CLEAR     74  69  85 S3        30.01S
PARIS*         CLEAR     69  67  96 SW3       30.03S
$$

ILZ079-100>102-030600-
SOUTHWEST ILLINOIS

CITY           SKY/WX    TMP DP  RH WIND       PRES   REMARKS
ALTON          CLEAR     71  69  93 CALM      30.01R
BELLEVILLE     CLEAR     74  74  99 CALM      30.00R
CAHOKIA*       CLEAR     75  69  81 S5        30.00S
SPARTA*        CLEAR     76  70  82 S3        30.02S
$$

ILZ064>066-069>071-074>076-080>082-084>086-088>090-092>094-030600-
SOUTH-CENTRAL ILLINOIS

CITY           SKY/WX    TMP DP  RH WIND       PRES   REMARKS
CARBONDALE     CLEAR     70  69  97 CALM      30.02S FOG
CAIRO*         CLEAR     68  68 100 CALM      30.02S FOG
EFFINGHAM*     CLEAR     70  67  90 CALM      30.03S
MARION         PTCLDY    72  70  94 CALM      30.03S
MT. VERNON       N/A     66  63  88 CALM      30.03S VSB 3/4
CENTRALIA*     CLEAR     70  69  97 CALM      30.01S
SALEM*         CLEAR     71  68  92 CALM      30.01S
METROPOLIS*    CLEAR     69  69 100 CALM      30.03S FOG
$$

ILZ067-068-072-073-078-083-087-091-030600-
SOUTHEAST ILLINOIS

CITY           SKY/WX    TMP DP  RH WIND       PRES   REMARKS
LAWRENCEVILLE  PTCLDY    72  69  90 CALM      30.02S
FLORA*         PTCLDY    69  66  91 SE3       30.02S
FAIRFIELD*     PTCLDY    71  69  95 CALM      30.01S
HARRISBURG*    PTCLDY    70  69  96 CALM      30.02S
ROBINSON*      PTCLDY    68  67  96 CALM      30.03S
CARMI*         CLEAR     69  68  97 CALM      30.02S
$$

ABBREVIATIONS USED IN REMARKS
   TC - TEMPERATURE IN CELSIUS
  WCI - WIND CHILL INDEX
   HX - HEAT INDEX
  VSB - VISIBILITY
$$



USA.gov is the U.S. government's official web portal to all federal, state and local government web resources and services.